This is the latest recevied weather packets stored in our database for station/object XQ6AK-15. If no packets are shown the sender has not sent any weather packets the latest 10 day(s).
| Time | Temp. | Humidity | Pressure | Rain* | Wind** | Luminosity | Snow |
|---|---|---|---|---|---|---|---|
| 1778330474 | 0° C | 99% | 1027 hPa | 0 mm | - | 39 W/m² | - |
| 1778330172 | -0.56° C | 99% | 1027.1 hPa | 0 mm | - | 30 W/m² | - |
| 1778329868 | -0.56° C | 99% | 1027.1 hPa | 0 mm | - | 26 W/m² | - |
| 1778329564 | -0.56° C | 99% | 1027 hPa | 0 mm | - | 25 W/m² | - |
| 1778329262 | -0.56° C | 99% | 1027 hPa | 0 mm | - | 19 W/m² | - |
| 1778328958 | -0.56° C | 99% | 1026.8 hPa | 0 mm | - | 16 W/m² | - |
| 1778328656 | -0.56° C | 99% | 1026.8 hPa | 0 mm | - | 13 W/m² | - |
| 1778328354 | -0.56° C | 99% | 1026.8 hPa | 0 mm | - | 9 W/m² | - |
| 1778328052 | -1.11° C | 99% | 1026.7 hPa | 0 mm | - | 7 W/m² | - |
| 1778327748 | -1.11° C | 99% | 1027 hPa | 0 mm | - | 4 W/m² | - |
| 1778327446 | -0.56° C | 99% | 1027 hPa | 0 mm | - | 3 W/m² | - |
| 1778327144 | -0.56° C | 99% | 1026.8 hPa | 0 mm | - | 0 W/m² | - |
| 1778326843 | -0.56° C | 99% | 1026.7 hPa | 0 mm | - | 0 W/m² | - |
| 1778326541 | -0.56° C | 99% | 1026.7 hPa | 0 mm | - | 0 W/m² | - |
| 1778326238 | -1.11° C | 99% | 1026.7 hPa | 0 mm | - | 0 W/m² | - |
| 1778325934 | -1.11° C | 99% | 1026.8 hPa | 0 mm | - | 0 W/m² | - |
| 1778325631 | -1.11° C | 99% | 1026.6 hPa | 0 mm | - | 0 W/m² | - |
| 1778325329 | -1.11° C | 99% | 1026.6 hPa | 0 mm | - | 0 W/m² | - |
| 1778325026 | -1.11° C | 99% | 1026.6 hPa | 0 mm | - | 0 W/m² | - |
| 1778324722 | -1.11° C | 99% | 1026.6 hPa | 0 mm | - | 0 W/m² | - |
| 1778324420 | -1.11° C | 99% | 1026.8 hPa | 0 mm | - | 0 W/m² | - |
| 1778324118 | -1.11° C | 99% | 1026.9 hPa | 0 mm | - | 0 W/m² | - |
| 1778323815 | -1.11° C | 99% | 1026.8 hPa | 0 mm | - | 0 W/m² | - |
| 1778323512 | -1.11° C | 99% | 1026.9 hPa | 0 mm | - | 0 W/m² | - |
| 1778323209 | -0.56° C | 99% | 1026.8 hPa | 0 mm | - | 0 W/m² | - |
* Rain latest hour (hover to see other rain measurements)
** Current wind speed in m/s (hover to see current wind gust speed)